| time (UTC) | temp C | wind direction | speed KPH | gust KPH | rain 1hr cm | rain 24hr cm | rain mn cm | humidity % | barometer mb |
| 20260906224124 | 35 | 275 | 0.0 | 11.3 | 0.00 | 0.00 | 0.00 | 28 | 1014.9 |
| 20260906224004 | -17 | 274 | 0.0 | 11.3 | 0.00 | 0.00 | 0.00 | 1015.2 | |
| 20260906223656 | 34 | 297 | 0.0 | 4.8 | 0.00 | 0.00 | 0.00 | 28 | 1014.9 |
| 20260906223514 | -17 | 16 | 0.0 | 8.0 | 0.00 | 0.00 | 0.00 | 1015.3 | |
| 20260906223145 | 34 | 3 | 0.0 | 8.0 | 0.00 | 0.00 | 0.00 | 29 | 1015.0 |
| 20260906223013 | -17 | 56 | 0.0 | 8.0 | 0.00 | 0.00 | 0.00 | 1015.3 | |
| 20260906222634 | 34 | 17 | 3.2 | 8.0 | 0.00 | 0.00 | 0.00 | 28 | 1015.1 |
| 20260906222515 | -17 | 39 | 0.0 | 8.0 | 0.00 | 0.00 | 0.00 | 1015.3 | |
| 20260906222126 | 34 | 351 | 0.0 | 11.3 | 0.00 | 0.00 | 0.00 | 28 | 1015.2 |
| 20260906222010 | -17 | 23 | 0.0 | 11.3 | 0.00 | 0.00 | 0.00 | 1015.5 | |
| 20260906221653 | 34 | 337 | 3.2 | 11.3 | 0.00 | 0.00 | 0.00 | 28 | 1015.2 |
| 20260906221509 | -17 | 354 | 1.6 | 11.3 | 0.00 | 0.00 | 0.00 | 1015.5 | |
| 20260906221122 | 33 | 332 | 3.2 | 11.3 | 0.00 | 0.00 | 0.00 | 28 | 1015.3 |
| 20260906221015 | -17 | 332 | 3.2 | 14.5 | 0.00 | 0.00 | 0.00 | 1015.7 | |
| 20260906220634 | 33 | 40 | 1.6 | 12.9 | 0.00 | 0.00 | 0.00 | 29 | 1015.4 |
| 20260906220511 | -17 | 1 | 0.0 | 14.5 | 0.00 | 0.00 | 0.00 | 1015.7 | |
| 20260906220126 | 33 | 34 | 4.8 | 16.1 | 0.00 | 0.00 | 0.00 | 28 | 1015.5 |
| 20260906220006 | -17 | 37 | 3.2 | 17.7 | 0.00 | 0.00 | 0.00 | 1015.8 | |
| 20260906215639 | 33 | 24 | 3.2 | 16.1 | 0.00 | 0.00 | 0.00 | 28 | 1015.5 |
| 20260906215516 | -17 | 18 | 4.8 | 17.7 | 0.00 | 0.00 | 0.00 | 1015.9 | |
| 20260906215133 | 34 | 335 | 1.6 | 14.5 | 0.00 | 0.00 | 0.00 | 28 | 1015.6 |
| 20260906215007 | -17 | 313 | 0.0 | 8.0 | 0.00 | 0.00 | 0.00 | 1016.0 | |
| 20260906214624 | 33 | 329 | 1.6 | 11.3 | 0.00 | 0.00 | 0.00 | 28 | 1015.8 |
| 20260906214536 | -17 | 345 | 0.0 | 16.1 | 0.00 | 0.00 | 0.00 | 1016.1 | |
| 20260906214137 | 34 | 55 | 0.0 | 14.5 | 0.00 | 0.00 | 0.00 | 30 | 1015.8 |
| 20260906214018 | -17 | 55 | 0.0 | 16.1 | 0.00 | 0.00 | 0.00 | 1016.2 | |
| 20260906213651 | 34 | 28 | 3.2 | 14.5 | 0.00 | 0.00 | 0.00 | 28 | 1015.9 |
| 20260906213509 | -17 | 56 | 0.0 | 11.3 | 0.00 | 0.00 | 0.00 | 1016.2 | |
| 20260906213141 | 34 | 332 | 3.2 | 11.3 | 0.00 | 0.00 | 0.00 | 28 | 1015.8 |
| 20260906213028 | -17 | 17 | 0.0 | 11.3 | 0.00 | 0.00 | 0.00 | 1016.2 | |
| 20260906212632 | 34 | 53 | 0.0 | 12.9 | 0.00 | 0.00 | 0.00 | 27 | 1016.2 |
| 20260906212511 | -17 | 55 | 0.0 | 14.5 | 0.00 | 0.00 | 0.00 | 1016.4 | |
| 20260906212142 | 34 | 66 | 3.2 | 16.1 | 0.00 | 0.00 | 0.00 | 29 | 1016.2 |
| 20260906212016 | -17 | 51 | 1.6 | 17.7 | 0.00 | 0.00 | 0.00 | 1016.5 | |
| 20260906211624 | 34 | 57 | 4.8 | 16.1 | 0.00 | 0.00 | 0.00 | 29 | 1016.3 |
| 20260906211534 | -17 | 7 | 6.4 | 17.7 | 0.00 | 0.00 | 0.00 | 1016.6 | |
| 20260906211139 | 34 | 63 | 0.0 | 14.5 | 0.00 | 0.00 | 0.00 | 29 | 1016.3 |
| 20260906211008 | -17 | 355 | 0.0 | 14.5 | 0.00 | 0.00 | 0.00 | 1016.6 | |
| 20260906210631 | 34 | 337 | 1.6 | 12.9 | 0.00 | 0.00 | 0.00 | 28 | 1016.4 |
| 20260906210521 | -17 | 19 | 0.0 | 16.1 | 0.00 | 0.00 | 0.00 | 1016.8 | |
| 20260906210141 | 34 | 35 | 1.6 | 12.9 | 0.00 | 0.00 | 0.00 | 29 | 1016.6 |
| 20260906210024 | -17 | 35 | 3.2 | 16.1 | 0.00 | 0.00 | 0.00 | 1017.0 | |
| 20260906205633 | 33 | 117 | 3.2 | 12.9 | 0.00 | 0.00 | 0.00 | 28 | 1016.6 |
| 20260906205506 | -17 | 94 | 3.2 | 16.1 | 0.00 | 0.00 | 0.00 | 1017.0 | |
| 20260906205144 | 33 | 93 | 0.0 | 12.9 | 0.00 | 0.00 | 0.00 | 29 | 1016.7 |
| 20260906205016 | -17 | 69 | 1.6 | 16.1 | 0.00 | 0.00 | 0.00 | 1017.1 | |
| 20260906204626 | 33 | 47 | 3.2 | 11.3 | 0.00 | 0.00 | 0.00 | 31 | 1016.8 |
| 20260906204514 | -17 | 71 | 3.2 | 9.7 | 0.00 | 0.00 | 0.00 | 1017.2 | |
| 20260906204157 | 33 | 32 | 0.0 | 8.0 | 0.00 | 0.00 | 0.00 | 30 | 1016.9 |
| 20260906204014 | -17 | 32 | 0.0 | 9.7 | 0.00 | 0.00 | 0.00 | 1017.3 | |
| 20260906203622 | 33 | 74 | 1.6 | 8.0 | 0.00 | 0.00 | 0.00 | 30 | 1016.9 |
| 20260906203514 | -17 | 357 | 0.0 | 11.3 | 0.00 | 0.00 | 0.00 | 1017.3 | |
| 20260906203135 | 33 | 59 | 0.0 | 9.7 | 0.00 | 0.00 | 0.00 | 30 | 1017.0 |
| 20260906203014 | -17 | 59 | 0.0 | 11.3 | 0.00 | 0.00 | 0.00 | 1017.4 | |
| 20260906202627 | 33 | 40 | 1.6 | 12.9 | 0.00 | 0.00 | 0.00 | 30 | 1017.0 |
| 20260906202514 | -17 | 34 | 0.0 | 17.7 | 0.00 | 0.00 | 0.00 | 1017.4 | |
| 20260906202132 | 33 | 69 | 1.6 | 16.1 | 0.00 | 0.00 | 0.00 | 29 | 1017.1 |
| 20260906202015 | -17 | 87 | 6.4 | 17.7 | 0.00 | 0.00 | 0.00 | 1017.5 | |
| 20260906201643 | 33 | 101 | 9.7 | 17.7 | 0.00 | 0.00 | 0.00 | 29 | 1017.1 |
| 20260906201510 | -17 | 77 | 4.8 | 17.7 | 0.00 | 0.00 | 0.00 | 1017.6 | |
| 20260906201132 | 33 | 21 | 1.6 | 11.3 | 0.00 | 0.00 | 0.00 | 29 | 1017.2 |
| 20260906201018 | -17 | 43 | 0.0 | 11.3 | 0.00 | 0.00 | 0.00 | 1017.7 | |
| 20260906200624 | 32 | 46 | 3.2 | 11.3 | 0.00 | 0.00 | 0.00 | 29 | 1017.2 |
| 20260906200516 | -17 | 51 | 3.2 | 11.3 | 0.00 | 0.00 | 0.00 | 1017.8 | |
| 20260906200138 | 32 | 121 | 3.2 | 11.3 | 0.00 | 0.00 | 0.00 | 29 | 1017.3 |
| 20260906200038 | -17 | 130 | 3.2 | 11.3 | 0.00 | 0.00 | 0.00 | 1017.8 | |
| 20260906195630 | 32 | 115 | 0.0 | 11.3 | 0.00 | 0.00 | 0.00 | 29 | 1017.4 |
| 20260906195512 | -17 | 78 | 0.0 | 12.9 | 0.00 | 0.00 | 0.00 | 1017.9 | |
| 20260906195141 | 32 | 13 | 0.0 | 11.3 | 0.00 | 0.00 | 0.00 | 29 | 1017.5 |
| 20260906195009 | -17 | 13 | 0.0 | 12.9 | 0.00 | 0.00 | 0.00 | 1018.0 | |
| 20260906194633 | 32 | 73 | 3.2 | 11.3 | 0.00 | 0.00 | 0.00 | 30 | 1017.5 |
| 20260906194530 | -17 | 78 | 0.0 | 12.9 | 0.00 | 0.00 | 0.00 | 1018.0 | |
| 20260906194123 | 32 | 94 | 3.2 | 12.9 | 0.00 | 0.00 | 0.00 | 30 | 1017.5 |
| 20260906194013 | -17 | 119 | 0.0 | 12.9 | 0.00 | 0.00 | 0.00 | 1018.0 | |
| 20260906193637 | 32 | 96 | 3.2 | 12.9 | 0.00 | 0.00 | 0.00 | 30 | 1017.6 |
| 20260906193508 | -17 | 34 | 0.0 | 8.0 | 0.00 | 0.00 | 0.00 | 1018.0 | |
| 20260906193150 | 32 | 340 | 1.6 | 8.0 | 0.00 | 0.00 | 0.00 | 29 | 1017.6 |
| 20260906193029 | -17 | 348 | 1.6 | 8.0 | 0.00 | 0.00 | 0.00 | 1018.1 | |
| 20260906192701 | 32 | 32 | 0.0 | 6.4 | 0.00 | 0.00 | 0.00 | 30 | 1017.7 |
| 20260906192511 | -17 | 109 | 0.0 | 12.9 | 0.00 | 0.00 | 0.00 | 1018.1 | |
| 20260906192134 | 32 | 74 | 0.0 | 16.1 | 0.00 | 0.00 | 0.00 | 29 | 1017.8 |
| 20260906192014 | -17 | 76 | 0.0 | 17.7 | 0.00 | 0.00 | 0.00 | 1018.2 | |
| 20260906191647 | 32 | 55 | 4.8 | 16.1 | 0.00 | 0.00 | 0.00 | 31 | 1017.9 |
| 20260906191527 | -17 | 40 | 4.8 | 17.7 | 0.00 | 0.00 | 0.00 | 1018.3 | |
| 20260906191148 | 32 | 23 | 1.6 | 8.0 | 0.00 | 0.00 | 0.00 | 31 | 1018.0 |
| 20260906191008 | -17 | 344 | 1.6 | 12.9 | 0.00 | 0.00 | 0.00 | 1018.3 | |
| 20260906190640 | 32 | 33 | 0.0 | 11.3 | 0.00 | 0.00 | 0.00 | 34 | 1018.0 |
| 20260906190516 | -17 | 89 | 0.0 | 12.9 | 0.00 | 0.00 | 0.00 | 1018.4 | |
| 20260906190131 | 31 | 107 | 4.8 | 11.3 | 0.00 | 0.00 | 0.00 | 33 | 1018.1 |
| 20260906190026 | -17 | 65 | 1.6 | 11.3 | 0.00 | 0.00 | 0.00 | 1018.5 | |
| 20260906185623 | 31 | 31 | 1.6 | 9.7 | 0.00 | 0.00 | 0.00 | 33 | 1018.2 |
| 20260906185510 | -17 | 31 | 0.0 | 11.3 | 0.00 | 0.00 | 0.00 | 1018.7 | |
| 20260906185151 | 31 | 101 | 3.2 | 9.7 | 0.00 | 0.00 | 0.00 | 33 | 1018.4 |
| 20260906185016 | -17 | 70 | 0.0 | 9.7 | 0.00 | 0.00 | 0.00 | 1018.8 | |
| 20260906184641 | 31 | 53 | 0.0 | 1.6 | 0.00 | 0.00 | 0.00 | 33 | 1018.5 |
| 20260906184518 | -17 | 7 | 0.0 | 6.4 | 0.00 | 0.00 | 0.00 | 1018.9 | |
| 20260906184131 | 31 | 9 | 0.0 | 4.8 | 0.00 | 0.00 | 0.00 | 34 | 1018.5 |
| 20260906184013 | -17 | 31 | 0.0 | 6.4 | 0.00 | 0.00 | 0.00 | 1019.1 | |
| 20260906183641 | 30 | 86 | 1.6 | 9.7 | 0.00 | 0.00 | 0.00 | 36 | 1018.6 |
| 20260906183518 | -17 | 55 | 0.0 | 11.3 | 0.00 | 0.00 | 0.00 | 1019.2 | |
| 20260906183132 | 30 | 32 | 0.0 | 11.3 | 0.00 | 0.00 | 0.00 | 35 | 1018.7 |
| 20260906183027 | -17 | 32 | 1.6 | 11.3 | 0.00 | 0.00 | 0.00 | 1019.3 | |
| 20260906182623 | 30 | 69 | 0.0 | 11.3 | 0.00 | 0.00 | 0.00 | 36 | 1018.8 |
| 20260906182517 | -17 | 60 | 0.0 | 11.3 | 0.00 | 0.00 | 0.00 | 1019.4 | |
| 20260906182138 | 30 | 82 | 0.0 | 8.0 | 0.00 | 0.00 | 0.00 | 35 | 1018.9 |
| 20260906182015 | -17 | 82 | 0.0 | 9.7 | 0.00 | 0.00 | 0.00 | 1019.5 | |
| 20260906181628 | 30 | 55 | 0.0 | 6.4 | 0.00 | 0.00 | 0.00 | 36 | 1019.0 |
| 20260906181515 | -17 | 45 | 0.0 | 8.0 | 0.00 | 0.00 | 0.00 | 1019.6 | |
| 20260906181141 | 30 | 44 | 0.0 | 8.0 | 0.00 | 0.00 | 0.00 | 36 | 1019.1 |
| 20260906181016 | -17 | 55 | 0.0 | 8.0 | 0.00 | 0.00 | 0.00 | 1019.7 | |
| 20260906180631 | 30 | 38 | 1.6 | 8.0 | 0.00 | 0.00 | 0.00 | 38 | 1019.1 |
| 20260906180515 | -17 | 175 | 0.0 | 11.3 | 0.00 | 0.00 | 0.00 | 1019.6 | |
| 20260906180143 | 29 | 88 | 0.0 | 11.3 | 0.00 | 0.00 | 0.00 | 38 | 1019.2 |
| 20260906180039 | -17 | 99 | 0.0 | 11.3 | 0.00 | 0.00 | 0.00 | 1019.7 | |
| 20260906175636 | 28 | 103 | 1.6 | 11.3 | 0.00 | 0.00 | 0.00 | 39 | 1019.3 |
| 20260906175516 | -17 | 33 | 0.0 | 9.7 | 0.00 | 0.00 | 0.00 | 1019.7 | |
| 20260906175147 | 28 | 96 | 0.0 | 8.0 | 0.00 | 0.00 | 0.00 | 37 | 1019.4 |
| 20260906175011 | -17 | 96 | 0.0 | 9.7 | 0.00 | 0.00 | 0.00 | 1019.8 | |
| 20260906174634 | 28 | 74 | 0.0 | 6.4 | 0.00 | 0.00 | 0.00 | 41 | 1019.6 |
| 20260906174535 | -17 | 80 | 0.0 | 8.0 | 0.00 | 0.00 | 0.00 | 1020.0 | |
| 20260906174126 | 28 | 80 | 1.6 | 6.4 | 0.00 | 0.00 | 0.00 | 42 | 1019.6 |
| 20260906174014 | -17 | 99 | 1.6 | 8.0 | 0.00 | 0.00 | 0.00 | 1020.1 | |
| 20260906173657 | 27 | 101 | 1.6 | 6.4 | 0.00 | 0.00 | 0.00 | 41 | 1019.7 |
| 20260906173509 | -17 | 98 | 0.0 | 3.2 | 0.00 | 0.00 | 0.00 | 1020.3 | |
| 20260906173128 | 27 | 42 | 0.0 | 0.0 | 0.00 | 0.00 | 0.00 | 42 | 1019.9 |
| 20260906173026 | -17 | 19 | 0.0 | 0.0 | 0.00 | 0.00 | 0.00 | 1020.4 | |
| 20260906172638 | 27 | 19 | 0.0 | 0.0 | 0.00 | 0.00 | 0.00 | 42 | 1020.1 |
| 20260906172512 | -17 | 19 | 0.0 | 0.0 | 0.00 | 0.00 | 0.00 | 1020.4 | |
| 20260906172129 | 27 | 43 | 0.0 | 6.4 | 0.00 | 0.00 | 0.00 | 43 | 1020.1 |
| 20260906172016 | -17 | 43 | 0.0 | 6.4 | 0.00 | 0.00 | 0.00 | 1020.5 | |
| 20260906171639 | 26 | 46 | 0.0 | 6.4 | 0.00 | 0.00 | 0.00 | 44 | 1020.1 |
| 20260906171526 | -17 | 46 | 0.0 | 6.4 | 0.00 | 0.00 | 0.00 | 1020.7 | |
| 20260906171130 | 26 | 51 | 0.0 | 6.4 | 0.00 | 0.00 | 0.00 | 46 | 1020.1 |
| 20260906171012 | -17 | 37 | 0.0 | 0.0 | 0.00 | 0.00 | 0.00 | 1020.6 | |
| 20260906170642 | 26 | 345 | 0.0 | 0.0 | 0.00 | 0.00 | 0.00 | 46 | 1020.3 |
| 20260906170523 | -17 | 280 | 0.0 | 0.0 | 0.00 | 0.00 | 0.00 | 1020.7 | |
| 20260906170133 | 26 | 280 | 0.0 | 0.0 | 0.00 | 0.00 | 0.00 | 45 | 1020.4 |
| 20260906170024 | -17 | 224 | 0.0 | 0.0 | 0.00 | 0.00 | 0.00 | 1020.7 | |
| 20260906165645 | 26 | 203 | 0.0 | 0.0 | 0.00 | 0.00 | 0.00 | 45 | 1020.5 |
| 20260906165508 | -17 | 203 | 0.0 | 0.0 | 0.00 | 0.00 | 0.00 | 1020.8 | |
| 20260906165138 | 25 | 187 | 0.0 | 0.0 | 0.00 | 0.00 | 0.00 | 46 | 1020.6 |
| 20260906165021 | -17 | 177 | 0.0 | 0.0 | 0.00 | 0.00 | 0.00 | 1020.9 | |
| 20260906164632 | 25 | 186 | 0.0 | 0.0 | 0.00 | 0.00 | 0.00 | 46 | 1020.6 |
| 20260906164535 | -17 | 195 | 0.0 | 0.0 | 0.00 | 0.00 | 0.00 | 1020.9 | |
| 20260906164142 | 25 | 92 | 0.0 | 0.0 | 0.00 | 0.00 | 0.00 | 48 | 1020.6 |
| 20260906164017 | -17 | 92 | 0.0 | 3.2 | 0.00 | 0.00 | 0.00 | 1020.9 | |
| 20260906163636 | 25 | 92 | 0.0 | 4.8 | 0.00 | 0.00 | 0.00 | 48 | 1020.6 |
| 20260906163516 | -17 | 92 | 0.0 | 4.8 | 0.00 | 0.00 | 0.00 | 1021.0 | |
| 20260906163128 | 24 | 92 | 0.0 | 4.8 | 0.00 | 0.00 | 0.00 | 50 | 1020.5 |
| 20260906163025 | -17 | 92 | 0.0 | 4.8 | 0.00 | 0.00 | 0.00 | 1021.0 | |
| 20260906162639 | 24 | 96 | 0.0 | 3.2 | 0.00 | 0.00 | 0.00 | 52 | 1020.5 |
| 20260906162514 | -17 | 98 | 0.0 | 0.0 | 0.00 | 0.00 | 0.00 | 1020.9 | |
| 20260906162130 | 24 | 100 | 0.0 | 0.0 | 0.00 | 0.00 | 0.00 | 54 | 1020.5 |
| 20260906162014 | -17 | 94 | 0.0 | 0.0 | 0.00 | 0.00 | 0.00 | 1021.0 | |
| 20260906161700 | 23 | 136 | 0.0 | 0.0 | 0.00 | 0.00 | 0.00 | 56 | 1020.5 |
| 20260906161515 | -17 | 136 | 0.0 | 0.0 | 0.00 | 0.00 | 0.00 | 1021.0 | |
| 20260906161129 | 23 | 94 | 0.0 | 0.0 | 0.00 | 0.00 | 0.00 | 57 | 1020.5 |
| 20260906161015 | -17 | 94 | 0.0 | 0.0 | 0.00 | 0.00 | 0.00 | 1021.0 | |
| 20260906160640 | 23 | 94 | 0.0 | 0.0 | 0.00 | 0.00 | 0.00 | 57 | 1020.5 |
| 20260906160514 | -17 | 94 | 0.0 | 0.0 | 0.00 | 0.00 | 0.00 | 1021.0 | |
| 20260906160131 | 23 | 94 | 0.0 | 0.0 | 0.00 | 0.00 | 0.00 | 57 | 1020.5 |
| 20260906160043 | -17 | 93 | 0.0 | 0.0 | 0.00 | 0.00 | 0.00 | 1021.0 | |
| 20260906155623 | 23 | 92 | 0.0 | 0.0 | 0.00 | 0.00 | 0.00 | 59 | 1020.5 |
| 20260906155520 | -17 | 38 | 0.0 | 0.0 | 0.00 | 0.00 | 0.00 | 1021.0 | |
| 20260906155136 | 23 | 38 | 0.0 | 0.0 | 0.00 | 0.00 | 0.00 | 60 | 1020.6 |
| 20260906155014 | -17 | 38 | 0.0 | 0.0 | 0.00 | 0.00 | 0.00 | 1021.0 | |
| 20260906154627 | 23 | 72 | 0.0 | 0.0 | 0.00 | 0.00 | 0.00 | 60 | 1020.5 |
| 20260906154534 | -17 | 72 | 0.0 | 0.0 | 0.00 | 0.00 | 0.00 | 1020.9 | |
| 20260906154130 | 22 | 53 | 0.0 | 0.0 | 0.00 | 0.00 | 0.00 | 63 | 1020.5 |
| 20260906154016 | -17 | 96 | 0.0 | 0.0 | 0.00 | 0.00 | 0.00 | 1020.9 | |
| 20260906153632 | 22 | 59 | 0.0 | 0.0 | 0.00 | 0.00 | 0.00 | 64 | 1020.4 |
| 20260906153516 | -17 | 61 | 0.0 | 0.0 | 0.00 | 0.00 | 0.00 | 1020.9 | |
| 20260906153202 | 22 | 69 | 0.0 | 3.2 | 0.00 | 0.00 | 0.00 | 64 | 1020.5 |
| 20260906153007 | -17 | 80 | 0.0 | 4.8 | 0.00 | 0.00 | 0.00 | 1020.9 | |
| 20260906152632 | 22 | 46 | 0.0 | 4.8 | 0.00 | 0.00 | 0.00 | 65 | 1020.6 |
| 20260906152504 | -17 | 46 | 0.0 | 4.8 | 0.00 | 0.00 | 0.00 | 1020.9 | |
| 20260906152123 | 22 | 31 | 0.0 | 0.0 | 0.00 | 0.00 | 0.00 | 66 | 1020.5 |
| 20260906152006 | -17 | 20 | 0.0 | 0.0 | 0.00 | 0.00 | 0.00 | 1020.9 | |
| 20260906151629 | 22 | 19 | 0.0 | 0.0 | 0.00 | 0.00 | 0.00 | 67 | 1020.6 |
| 20260906151504 | -17 | 19 | 0.0 | 0.0 | 0.00 | 0.00 | 0.00 | 1020.9 | |
| 20260906151142 | 21 | 19 | 0.0 | 0.0 | 0.00 | 0.00 | 0.00 | 68 | 1020.6 |
| 20260906151004 | -17 | 19 | 0.0 | 0.0 | 0.00 | 0.00 | 0.00 | 1020.9 | |
| 20260906150635 | 21 | 306 | 0.0 | 0.0 | 0.00 | 0.00 | 0.00 | 68 | 1020.7 |
| 20260906150504 | -17 | 306 | 0.0 | 0.0 | 0.00 | 0.00 | 0.00 | 1021.0 | |
| 20260906150128 | 21 | 306 | 0.0 | 0.0 | 0.00 | 0.00 | 0.00 | 69 | 1020.7 |
| 20260906150016 | -17 | 306 | 0.0 | 0.0 | 0.00 | 0.00 | 0.00 | 1021.0 | |
| 20260906145658 | 21 | 306 | 0.0 | 0.0 | 0.00 | 0.00 | 0.00 | 70 | 1020.7 |
| 20260906145502 | -17 | 306 | 0.0 | 0.0 | 0.00 | 0.00 | 0.00 | 1021.0 | |
| 20260906145128 | 21 | 306 | 0.0 | 0.0 | 0.00 | 0.00 | 0.00 | 71 | 1020.7 |
| 20260906145004 | -17 | 306 | 0.0 | 0.0 | 0.00 | 0.00 | 0.00 | 1021.0 | |
| 20260906144639 | 20 | 306 | 0.0 | 0.0 | 0.00 | 0.00 | 0.00 | 70 | 1020.7 |
| 20260906144504 | -17 | 305 | 0.0 | 0.0 | 0.00 | 0.00 | 0.00 | 1021.1 | |
| 20260906144129 | -17 | 305 | 0.0 | 0.0 | 0.00 | 0.00 | 0.00 | 1020.7 | |
| 20260906144003 | -17 | 305 | 0.0 | 0.0 | 0.00 | 0.00 | 0.00 | 1021.2 | |
| 20260906143630 | -17 | 305 | 0.0 | 1.6 | 0.00 | 0.00 | 0.00 | 1020.8 | |
| 20260906143504 | -17 | 306 | 0.0 | 1.6 | 0.00 | 0.00 | 0.00 | 1021.3 | |
| 20260906143141 | -17 | 306 | 0.0 | 1.6 | 0.00 | 0.00 | 0.00 | 1020.8 | |
| 20260906143003 | -17 | 305 | 0.0 | 1.6 | 0.00 | 0.00 | 0.00 | 1021.2 | |
| 20260906142630 | -17 | 327 | 0.0 | 0.0 | 0.00 | 0.00 | 0.00 | 1020.8 | |
| 20260906142504 | -17 | 314 | 0.0 | 0.0 | 0.00 | 0.00 | 0.00 | 1021.0 | |
| 20260906142141 | -17 | 314 | 0.0 | 0.0 | 0.00 | 0.00 | 0.00 | 1020.6 | |
| 20260906142004 | -17 | 313 | 0.0 | 0.0 | 0.00 | 0.00 | 0.00 | 1021.0 | |
| 20260906141634 | -17 | 315 | 0.0 | 0.0 | 0.00 | 0.00 | 0.00 | 1020.6 | |
| 20260906141504 | -17 | 315 | 0.0 | 0.0 | 0.00 | 0.00 | 0.00 | 1021.0 | |
| 20260906141124 | -17 | 311 | 0.0 | 0.0 | 0.00 | 0.00 | 0.00 | 1020.7 | |
| 20260906141004 | -17 | 311 | 0.0 | 0.0 | 0.00 | 0.00 | 0.00 | 1021.0 | |
| 20260906140640 | -17 | 311 | 0.0 | 0.0 | 0.00 | 0.00 | 0.00 | 1020.8 | |
| 20260906140504 | -17 | 311 | 0.0 | 0.0 | 0.00 | 0.00 | 0.00 | 1021.0 | |
| 20260906140128 | -17 | 311 | 0.0 | 0.0 | 0.00 | 0.00 | 0.00 | 1020.8 | |
| 20260906140004 | -17 | 311 | 0.0 | 0.0 | 0.00 | 0.00 | 0.00 | 1021.1 | |
| 20260906135659 | -17 | 311 | 0.0 | 0.0 | 0.00 | 0.00 | 0.00 | 1020.8 | |
| 20260906135504 | -17 | 311 | 0.0 | 0.0 | 0.00 | 0.00 | 0.00 | 1021.0 | |
| 20260906135128 | -17 | 311 | 0.0 | 0.0 | 0.00 | 0.00 | 0.00 | 1020.8 | |
| 20260906135006 | -17 | 311 | 0.0 | 0.0 | 0.00 | 0.00 | 0.00 | 1021.1 | |
| 20260906134641 | -17 | 317 | 0.0 | 0.0 | 0.00 | 0.00 | 0.00 | 1020.8 | |
| 20260906134503 | -17 | 317 | 0.0 | 0.0 | 0.00 | 0.00 | 0.00 | 1021.1 | |
| 20260906134135 | -17 | 317 | 0.0 | 0.0 | 0.00 | 0.00 | 0.00 | 1020.8 | |
| 20260906134006 | -17 | 317 | 0.0 | 0.0 | 0.00 | 0.00 | 0.00 | 1021.0 | |
| 20260906133625 | -17 | 317 | 0.0 | 0.0 | 0.00 | 0.00 | 0.00 | 1020.7 | |
| 20260906133506 | -17 | 317 | 0.0 | 0.0 | 0.00 | 0.00 | 0.00 | 1020.9 | |
| 20260906133127 | -17 | 317 | 0.0 | 0.0 | 0.00 | 0.00 | 0.00 | 1020.6 | |
| 20260906133003 | -17 | 317 | 0.0 | 0.0 | 0.00 | 0.00 | 0.00 | 1020.8 | |
| 20260906132632 | -17 | 317 | 0.0 | 0.0 | 0.00 | 0.00 | 0.00 | 1020.5 | |
| 20260906132504 | -17 | 317 | 0.0 | 0.0 | 0.00 | 0.00 | 0.00 | 1020.8 | |
| 20260906132142 | -17 | 317 | 0.0 | 0.0 | 0.00 | 0.00 | 0.00 | 1020.5 | |
| 20260906132003 | -17 | 317 | 0.0 | 0.0 | 0.00 | 0.00 | 0.00 | 1020.7 | |
| 20260906131634 | -17 | 317 | 0.0 | 0.0 | 0.00 | 0.00 | 0.00 | 1020.6 | |
| 20260906131514 | -17 | 317 | 0.0 | 0.0 | 0.00 | 0.00 | 0.00 | 1020.9 | |
| 20260906131138 | -17 | 317 | 0.0 | 0.0 | 0.00 | 0.00 | 0.00 | 1020.5 | |
| 20260906131004 | -17 | 317 | 0.0 | 0.0 | 0.00 | 0.00 | 0.00 | 1020.9 | |
| 20260906130627 | -17 | 317 | 0.0 | 0.0 | 0.00 | 0.00 | 0.00 | 1020.5 | |
| 20260906130504 | -17 | 317 | 0.0 | 0.0 | 0.00 | 0.00 | 0.00 | 1020.9 | |
| 20260906130134 | -17 | 317 | 0.0 | 0.0 | 0.00 | 0.00 | 0.00 | 1020.4 | |
| 20260906130004 | -17 | 317 | 0.0 | 0.0 | 0.00 | 0.00 | 0.00 | 1020.7 | |
| 20260906125623 | -17 | 317 | 0.0 | 0.0 | 0.00 | 0.00 | 0.00 | 1020.4 | |
| 20260906125514 | -17 | 317 | 0.0 | 0.0 | 0.00 | 0.00 | 0.00 | 1020.7 | |
| 20260906125132 | -17 | 317 | 0.0 | 0.0 | 0.00 | 0.00 | 0.00 | 1020.3 | |
| 20260906125007 | -17 | 317 | 0.0 | 0.0 | 0.00 | 0.00 | 0.00 | 1020.7 | |
| 20260906124642 | -17 | 317 | 0.0 | 0.0 | 0.00 | 0.00 | 0.00 | 1020.3 | |
| 20260906124528 | -17 | 317 | 0.0 | 0.0 | 0.00 | 0.00 | 0.00 | 1020.7 | |
| 20260906124133 | -17 | 317 | 0.0 | 0.0 | 0.00 | 0.00 | 0.00 | 1020.2 | |
| 20260906124010 | -17 | 317 | 0.0 | 0.0 | 0.00 | 0.00 | 0.00 | 1020.7 | |
| 20260906123623 | -17 | 317 | 0.0 | 0.0 | 0.00 | 0.00 | 0.00 | 1020.2 | |
| 20260906123506 | -17 | 317 | 0.0 | 0.0 | 0.00 | 0.00 | 0.00 | 1020.6 | |
| 20260906123133 | -17 | 317 | 0.0 | 0.0 | 0.00 | 0.00 | 0.00 | 1020.3 | |
| 20260906123023 | -17 | 317 | 0.0 | 0.0 | 0.00 | 0.00 | 0.00 | 1020.7 | |
| 20260906122643 | 16 | 317 | 0.0 | 0.0 | 0.00 | 0.00 | 0.00 | 75 | 1020.3 |
| 20260906122511 | -17 | 317 | 0.0 | 0.0 | 0.00 | 0.00 | 0.00 | 1020.7 | |
| 20260906122140 | 16 | 317 | 0.0 | 0.0 | 0.00 | 0.00 | 0.00 | 75 | 1020.3 |
| 20260906122004 | -17 | 317 | 0.0 | 0.0 | 0.00 | 0.00 | 0.00 | 1020.7 | |
| 20260906121632 | 16 | 317 | 0.0 | 0.0 | 0.00 | 0.00 | 0.00 | 75 | 1020.3 |
| 20260906121504 | -17 | 317 | 0.0 | 0.0 | 0.00 | 0.00 | 0.00 | 1020.7 | |
| 20260906121121 | 17 | 317 | 0.0 | 0.0 | 0.00 | 0.00 | 0.00 | 74 | 1020.4 |
| 20260906121003 | -17 | 317 | 0.0 | 0.0 | 0.00 | 0.00 | 0.00 | 1020.7 | |
| 20260906120633 | 17 | 317 | 0.0 | 0.0 | 0.00 | 0.00 | 0.00 | 73 | 1020.3 |
| 20260906120503 | -17 | 317 | 0.0 | 0.0 | 0.00 | 0.00 | 0.00 | 1020.7 | |
| 20260906120124 | 17 | 317 | 0.0 | 0.0 | 0.00 | 0.00 | 0.00 | 73 | 1020.4 |
| 20260906120014 | -17 | 317 | 0.0 | 0.0 | 0.00 | 0.00 | 0.00 | 1020.7 | |
| 20260906115637 | 17 | 317 | 0.0 | 0.0 | 0.00 | 0.00 | 0.00 | 73 | 1020.3 |
| 20260906115506 | -17 | 317 | 0.0 | 0.0 | 0.00 | 0.00 | 0.00 | 1020.6 | |
| 20260906115130 | 17 | 317 | 0.0 | 0.0 | 0.00 | 0.00 | 0.00 | 72 | 1020.3 |
| 20260906115013 | -17 | 317 | 0.0 | 0.0 | 0.00 | 0.00 | 0.00 | 1020.5 | |
| 20260906114639 | 17 | 317 | 0.0 | 0.0 | 0.00 | 0.00 | 0.00 | 72 | 1020.3 |
| 20260906114532 | -17 | 317 | 0.0 | 0.0 | 0.00 | 0.00 | 0.00 | 1020.6 | |
| 20260906114130 | 17 | 317 | 0.0 | 0.0 | 0.00 | 0.00 | 0.00 | 72 | 1020.3 |
| 20260906114011 | -17 | 317 | 0.0 | 0.0 | 0.00 | 0.00 | 0.00 | 1020.6 | |
| 20260906113641 | 17 | 317 | 0.0 | 0.0 | 0.00 | 0.00 | 0.00 | 71 | 1020.2 |
| 20260906113517 | -17 | 317 | 0.0 | 0.0 | 0.00 | 0.00 | 0.00 | 1020.5 | |
| 20260906113130 | 17 | 317 | 0.0 | 0.0 | 0.00 | 0.00 | 0.00 | 70 | 1020.2 |
| 20260906113011 | -17 | 317 | 0.0 | 0.0 | 0.00 | 0.00 | 0.00 | 1020.6 | |
| 20260906112642 | 17 | 317 | 0.0 | 0.0 | 0.00 | 0.00 | 0.00 | 70 | 1020.2 |
| 20260906112514 | -17 | 317 | 0.0 | 0.0 | 0.00 | 0.00 | 0.00 | 1020.5 | |
| 20260906112134 | 17 | 317 | 0.0 | 0.0 | 0.00 | 0.00 | 0.00 | 70 | 1020.2 |
| 20260906112012 | -17 | 317 | 0.0 | 0.0 | 0.00 | 0.00 | 0.00 | 1020.5 | |
| 20260906111625 | 17 | 317 | 0.0 | 0.0 | 0.00 | 0.00 | 0.00 | 69 | 1020.1 |
| 20260906111506 | -17 | 317 | 0.0 | 0.0 | 0.00 | 0.00 | 0.00 | 1020.3 | |
| 20260906111139 | 17 | 317 | 0.0 | 0.0 | 0.00 | 0.00 | 0.00 | 69 | 1020.1 |
| 20260906111015 | -17 | 317 | 0.0 | 0.0 | 0.00 | 0.00 | 0.00 | 1020.2 | |
| 20260906110631 | 17 | 317 | 0.0 | 0.0 | 0.00 | 0.00 | 0.00 | 67 | 1020.0 |
| 20260906110510 | -17 | 317 | 0.0 | 0.0 | 0.00 | 0.00 | 0.00 | 1020.2 | |
| 20260906110142 | 17 | 317 | 0.0 | 0.0 | 0.00 | 0.00 | 0.00 | 66 | 1019.9 |
| 20260906110004 | -17 | 317 | 0.0 | 0.0 | 0.00 | 0.00 | 0.00 | 1020.1 | |
| 20260906105632 | 18 | 317 | 0.0 | 0.0 | 0.00 | 0.00 | 0.00 | 65 | 1020.1 |
| 20260906105513 | -17 | 317 | 0.0 | 0.0 | 0.00 | 0.00 | 0.00 | 1020.3 | |
| 20260906105123 | 18 | 317 | 0.0 | 0.0 | 0.00 | 0.00 | 0.00 | 64 | 1019.9 |
| 20260906105009 | -17 | 317 | 0.0 | 0.0 | 0.00 | 0.00 | 0.00 | 1020.1 | |
| 20260906104634 | 18 | 317 | 0.0 | 0.0 | 0.00 | 0.00 | 0.00 | 63 | 1019.8 |
| 20260906104529 | -17 | 317 | 0.0 | 0.0 | 0.00 | 0.00 | 0.00 | 1020.1 | |
| 20260906104125 | 18 | 317 | 0.0 | 0.0 | 0.00 | 0.00 | 0.00 | 63 | 1019.9 |
| 20260906104011 | -17 | 317 | 0.0 | 0.0 | 0.00 | 0.00 | 0.00 | 1020.2 | |
| 20260906103652 | 18 | 324 | 0.0 | 0.0 | 0.00 | 0.00 | 0.00 | 62 | 1019.9 |
| 20260906103508 | -17 | 324 | 0.0 | 0.0 | 0.00 | 0.00 | 0.00 | 1020.2 | |
| 20260906103141 | 18 | 324 | 0.0 | 0.0 | 0.00 | 0.00 | 0.00 | 61 | 1019.9 |
| 20260906103026 | -17 | 324 | 0.0 | 0.0 | 0.00 | 0.00 | 0.00 | 1020.1 | |
| 20260906102634 | 18 | 324 | 0.0 | 0.0 | 0.00 | 0.00 | 0.00 | 60 | 1019.8 |
| 20260906102510 | -17 | 324 | 0.0 | 0.0 | 0.00 | 0.00 | 0.00 | 1020.0 | |
| 20260906102145 | 18 | 343 | 0.0 | 0.0 | 0.00 | 0.00 | 0.00 | 59 | 1019.7 |
| 20260906102011 | -17 | 343 | 0.0 | 0.0 | 0.00 | 0.00 | 0.00 | 1019.9 | |
| 20260906101633 | 18 | 344 | 0.0 | 0.0 | 0.00 | 0.00 | 0.00 | 59 | 1019.7 |
| 20260906101523 | -17 | 344 | 0.0 | 0.0 | 0.00 | 0.00 | 0.00 | 1020.0 | |
| 20260906101123 | 19 | 344 | 0.0 | 0.0 | 0.00 | 0.00 | 0.00 | 59 | 1019.7 |
| 20260906101010 | -17 | 344 | 0.0 | 0.0 | 0.00 | 0.00 | 0.00 | 1019.9 | |
| 20260906100654 | 19 | 344 | 0.0 | 0.0 | 0.00 | 0.00 | 0.00 | 59 | 1019.6 |
| 20260906100518 | -17 | 344 | 0.0 | 0.0 | 0.00 | 0.00 | 0.00 | 1019.9 | |
| 20260906100124 | 19 | 344 | 0.0 | 0.0 | 0.00 | 0.00 | 0.00 | 58 | 1019.7 |
| 20260906100017 | -17 | 344 | 0.0 | 0.0 | 0.00 | 0.00 | 0.00 | 1020.0 | |
| 20260906095637 | 19 | 344 | 0.0 | 0.0 | 0.00 | 0.00 | 0.00 | 58 | 1019.7 |
| 20260906095507 | -17 | 344 | 0.0 | 0.0 | 0.00 | 0.00 | 0.00 | 1020.0 | |
| 20260906095127 | 19 | 341 | 0.0 | 0.0 | 0.00 | 0.00 | 0.00 | 57 | 1019.8 |
| 20260906095016 | -17 | 341 | 0.0 | 0.0 | 0.00 | 0.00 | 0.00 | 1020.1 | |
| 20260906094640 | 19 | 340 | 0.0 | 0.0 | 0.00 | 0.00 | 0.00 | 57 | 1019.6 |
| 20260906094527 | -17 | 341 | 0.0 | 0.0 | 0.00 | 0.00 | 0.00 | 1019.9 | |
| 20260906094134 | 19 | 340 | 0.0 | 0.0 | 0.00 | 0.00 | 0.00 | 56 | 1019.6 |
| 20260906094017 | -17 | 340 | 0.0 | 0.0 | 0.00 | 0.00 | 0.00 | 1020.0 | |
| 20260906093645 | 19 | 340 | 0.0 | 0.0 | 0.00 | 0.00 | 0.00 | 55 | 1019.6 |
| 20260906093512 | -17 | 340 | 0.0 | 0.0 | 0.00 | 0.00 | 0.00 | 1020.0 | |
| 20260906093155 | 20 | 340 | 0.0 | 0.0 | 0.00 | 0.00 | 0.00 | 55 | 1019.7 |
| 20260906093013 | -17 | 340 | 0.0 | 0.0 | 0.00 | 0.00 | 0.00 | 1020.0 | |
| 20260906092623 | 20 | 340 | 0.0 | 0.0 | 0.00 | 0.00 | 0.00 | 55 | 1019.7 |
| 20260906092516 | -17 | 340 | 0.0 | 0.0 | 0.00 | 0.00 | 0.00 | 1020.0 | |
| 20260906092137 | 20 | 340 | 0.0 | 0.0 | 0.00 | 0.00 | 0.00 | 54 | 1019.6 |
| 20260906092014 | -17 | 340 | 0.0 | 0.0 | 0.00 | 0.00 | 0.00 | 1019.9 | |
| 20260906091628 | 20 | 340 | 0.0 | 0.0 | 0.00 | 0.00 | 0.00 | 53 | 1019.6 |
| 20260906091508 | -17 | 340 | 0.0 | 0.0 | 0.00 | 0.00 | 0.00 | 1019.8 | |
| 20260906091137 | 20 | 340 | 0.0 | 0.0 | 0.00 | 0.00 | 0.00 | 53 | 1019.4 |
| 20260906091016 | -17 | 340 | 0.0 | 0.0 | 0.00 | 0.00 | 0.00 | 1019.8 | |
| 20260906090649 | 20 | 340 | 0.0 | 0.0 | 0.00 | 0.00 | 0.00 | 53 | 1019.4 |
| 20260906090516 | -17 | 340 | 0.0 | 0.0 | 0.00 | 0.00 | 0.00 | 1019.7 | |
| 20260906090139 | 20 | 340 | 0.0 | 0.0 | 0.00 | 0.00 | 0.00 | 53 | 1019.4 |
| 20260906090031 | -17 | 340 | 0.0 | 0.0 | 0.00 | 0.00 | 0.00 | 1019.7 | |
| 20260906085651 | 20 | 344 | 0.0 | 0.0 | 0.00 | 0.00 | 0.00 | 54 | 1019.3 |
| 20260906085512 | -17 | 348 | 0.0 | 0.0 | 0.00 | 0.00 | 0.00 | 1019.6 | |
| 20260906085141 | 20 | 348 | 0.0 | 0.0 | 0.00 | 0.00 | 0.00 | 53 | 1019.2 |
| 20260906085007 | -17 | 348 | 0.0 | 0.0 | 0.00 | 0.00 | 0.00 | 1019.5 | |
| 20260906084629 | 20 | 348 | 0.0 | 0.0 | 0.00 | 0.00 | 0.00 | 53 | 1019.2 |
| 20260906084535 | -17 | 348 | 0.0 | 0.0 | 0.00 | 0.00 | 0.00 | 1019.6 | |
| 20260906084142 | 20 | 94 | 0.0 | 0.0 | 0.00 | 0.00 | 0.00 | 51 | 1019.2 |
| 20260906084014 | -17 | 94 | 0.0 | 0.0 | 0.00 | 0.00 | 0.00 | 1019.6 | |
| 20260906083635 | 21 | 101 | 0.0 | 0.0 | 0.00 | 0.00 | 0.00 | 52 | 1019.3 |
| 20260906083503 | -17 | 101 | 0.0 | 0.0 | 0.00 | 0.00 | 0.00 | 1019.6 | |
| 20260906083123 | 21 | 106 | 0.0 | 0.0 | 0.00 | 0.00 | 0.00 | 51 | 1019.3 |
| 20260906083033 | -17 | 106 | 0.0 | 0.0 | 0.00 | 0.00 | 0.00 | 1019.7 | |
| 20260906082637 | 21 | 109 | 0.0 | 0.0 | 0.00 | 0.00 | 0.00 | 51 | 1019.3 |
| 20260906082509 | -17 | 109 | 0.0 | 0.0 | 0.00 | 0.00 | 0.00 | 1019.6 | |
| 20260906082125 | 21 | 109 | 0.0 | 0.0 | 0.00 | 0.00 | 0.00 | 51 | 1019.1 |
| 20260906082014 | -17 | 109 | 0.0 | 0.0 | 0.00 | 0.00 | 0.00 | 1019.5 | |
| 20260906081656 | 21 | 109 | 0.0 | 0.0 | 0.00 | 0.00 | 0.00 | 49 | 1019.2 |
| 20260906081541 | -17 | 261 | 0.0 | 0.0 | 0.00 | 0.00 | 0.00 | 1019.4 | |
| 20260906081145 | 21 | 261 | 0.0 | 0.0 | 0.00 | 0.00 | 0.00 | 49 | 1019.1 |
| 20260906081008 | -17 | 261 | 0.0 | 0.0 | 0.00 | 0.00 | 0.00 | 1019.4 | |
| 20260906080637 | 21 | 261 | 0.0 | 0.0 | 0.00 | 0.00 | 0.00 | 49 | 1019.0 |
| 20260906080519 | -17 | 261 | 0.0 | 0.0 | 0.00 | 0.00 | 0.00 | 1019.3 | |
| 20260906080127 | 21 | 261 | 0.0 | 0.0 | 0.00 | 0.00 | 0.00 | 49 | 1019.0 |
| 20260906080021 | -17 | 261 | 0.0 | 0.0 | 0.00 | 0.00 | 0.00 | 1019.2 | |
| 20260906075636 | 21 | 261 | 0.0 | 0.0 | 0.00 | 0.00 | 0.00 | 49 | 1018.9 |
| 20260906075506 | -17 | 261 | 0.0 | 0.0 | 0.00 | 0.00 | 0.00 | 1019.2 | |
| 20260906075127 | 21 | 239 | 0.0 | 0.0 | 0.00 | 0.00 | 0.00 | 49 | 1018.8 |
| 20260906075020 | -17 | 239 | 0.0 | 0.0 | 0.00 | 0.00 | 0.00 | 1019.1 | |
| 20260906074658 | 21 | 251 | 0.0 | 0.0 | 0.00 | 0.00 | 0.00 | 49 | 1018.8 |
| 20260906074516 | -17 | 248 | 0.0 | 0.0 | 0.00 | 0.00 | 0.00 | 1019.1 | |
| 20260906074129 | 21 | 274 | 0.0 | 0.0 | 0.00 | 0.00 | 0.00 | 49 | 1018.8 |
| 20260906074016 | -17 | 275 | 0.0 | 0.0 | 0.00 | 0.00 | 0.00 | 1019.1 | |
| 20260906073639 | 21 | 273 | 0.0 | 0.0 | 0.00 | 0.00 | 0.00 | 49 | 1018.8 |
| 20260906073515 | -17 | 273 | 0.0 | 0.0 | 0.00 | 0.00 | 0.00 | 1019.1 | |
| 20260906073131 | 21 | 268 | 0.0 | 0.0 | 0.00 | 0.00 | 0.00 | 49 | 1018.8 |
| 20260906073012 | -17 | 267 | 0.0 | 0.0 | 0.00 | 0.00 | 0.00 | 1019.1 | |
| 20260906072642 | 21 | 267 | 0.0 | 0.0 | 0.00 | 0.00 | 0.00 | 49 | 1018.7 |
| 20260906072517 | -17 | 269 | 0.0 | 0.0 | 0.00 | 0.00 | 0.00 | 1019.1 | |
| 20260906072132 | 21 | 279 | 0.0 | 0.0 | 0.00 | 0.00 | 0.00 | 49 | 1018.8 |
| 20260906072015 | -17 | 280 | 0.0 | 0.0 | 0.00 | 0.00 | 0.00 | 1019.1 | |
| 20260906071642 | 22 | 275 | 0.0 | 0.0 | 0.00 | 0.00 | 0.00 | 49 | 1018.8 |
| 20260906071512 | -17 | 261 | 0.0 | 0.0 | 0.00 | 0.00 | 0.00 | 1019.1 | |
| 20260906071134 | 22 | 242 | 0.0 | 0.0 | 0.00 | 0.00 | 0.00 | 49 | 1018.8 |
| 20260906071014 | -17 | 242 | 0.0 | 0.0 | 0.00 | 0.00 | 0.00 | 1019.0 | |
| 20260906070623 | 22 | 242 | 0.0 | 0.0 | 0.00 | 0.00 | 0.00 | 48 | 1018.8 |
| 20260906070513 | -17 | 242 | 0.0 | 0.0 | 0.00 | 0.00 | 0.00 | 1019.1 | |
| 20260906070135 | 22 | 242 | 0.0 | 0.0 | 0.00 | 0.00 | 0.00 | 49 | 1018.9 |
| 20260906070031 | -17 | 242 | 0.0 | 12.9 | 0.00 | 0.00 | 0.00 | 1019.2 | |
| 20260906065623 | 22 | 244 | 0.0 | 11.3 | 0.00 | 0.00 | 0.00 | 49 | 1018.9 |
| 20260906065515 | -17 | 232 | 0.0 | 12.9 | 0.00 | 0.00 | 0.00 | 1019.2 | |
| 20260906065133 | 22 | 256 | 4.8 | 12.9 | 0.00 | 0.00 | 0.00 | 49 | 1018.9 |
| 20260906065009 | -17 | 247 | 1.6 | 14.5 | 0.00 | 0.00 | 0.00 | 1019.3 | |
| 20260906064623 | 22 | 232 | 0.0 | 12.9 | 0.00 | 0.00 | 0.00 | 49 | 1019.0 |
| 20260906064532 | -17 | 261 | 1.6 | 14.5 | 0.00 | 0.00 | 0.00 | 1019.5 | |
| 20260906064136 | 22 | 210 | 3.2 | 11.3 | 0.00 | 0.00 | 0.00 | 49 | 1019.1 |
| 20260906064014 | -17 | 231 | 0.0 | 12.9 | 0.00 | 0.00 | 0.00 | 1019.6 | |
| 20260906063627 | 22 | 234 | 0.0 | 0.0 | 0.00 | 0.00 | 0.00 | 49 | 1019.1 |
| 20260906063510 | -17 | 247 | 0.0 | 0.0 | 0.00 | 0.00 | 0.00 | 1019.6 | |
| 20260906063138 | 22 | 271 | 0.0 | 0.0 | 0.00 | 0.00 | 0.00 | 49 | 1019.1 |
| 20260906063007 | -17 | 271 | 0.0 | 0.0 | 0.00 | 0.00 | 0.00 | 1019.6 | |
| 20260906062628 | 22 | 239 | 0.0 | 0.0 | 0.00 | 0.00 | 0.00 | 49 | 1019.2 |
| 20260906062505 | -17 | 248 | 0.0 | 0.0 | 0.00 | 0.00 | 0.00 | 1019.7 | |
| 20260906062138 | 22 | 244 | 0.0 | 9.7 | 0.00 | 0.00 | 0.00 | 49 | 1019.2 |
| 20260906062003 | -17 | 246 | 0.0 | 9.7 | 0.00 | 0.00 | 0.00 | 1019.7 | |
| 20260906061629 | 22 | 229 | 0.0 | 9.7 | 0.00 | 0.00 | 0.00 | 48 | 1019.2 |
| 20260906061507 | -17 | 229 | 0.0 | 9.7 | 0.00 | 0.00 | 0.00 | 1019.7 | |
| 20260906061156 | 23 | 261 | 4.8 | 9.7 | 0.00 | 0.00 | 0.00 | 47 | 1019.2 |
| 20260906061004 | -17 | 217 | 0.0 | 6.4 | 0.00 | 0.00 | 0.00 | 1019.7 | |
| 20260906060644 | 23 | 213 | 0.0 | 0.0 | 0.00 | 0.00 | 0.00 | 47 | 1019.3 |
| 20260906060503 | -17 | 213 | 0.0 | 0.0 | 0.00 | 0.00 | 0.00 | 1019.7 | |
| 20260906060136 | 23 | 213 | 0.0 | 0.0 | 0.00 | 0.00 | 0.00 | 47 | 1019.3 |
| 20260906060004 | -17 | 213 | 0.0 | 0.0 | 0.00 | 0.00 | 0.00 | 1019.8 | |
| 20260906055625 | 23 | 213 | 0.0 | 8.0 | 0.00 | 0.00 | 0.00 | 47 | 1019.5 |
| 20260906055503 | -17 | 213 | 0.0 | 12.9 | 0.00 | 0.00 | 0.00 | 1020.0 | |
| 20260906055140 | 23 | 213 | 0.0 | 11.3 | 0.00 | 0.00 | 0.00 | 47 | 1019.4 |
| 20260906055003 | -17 | 213 | 0.0 | 12.9 | 0.00 | 0.00 | 0.00 | 1020.0 | |
| 20260906054631 | 23 | 200 | 6.4 | 11.3 | 0.00 | 0.00 | 0.00 | 46 | 1019.4 |
| 20260906054506 | -17 | 217 | 4.8 | 9.7 | 0.00 | 0.00 | 0.00 | 1019.9 | |
| 20260906054141 | 23 | 221 | 0.0 | 19.3 | 0.00 | 0.00 | 0.00 | 46 | 1019.2 |
| 20260906054004 | -17 | 217 | 0.0 | 20.9 | 0.00 | 0.00 | 0.00 | 1020.0 | |
| 20260906053652 | 24 | 225 | 3.2 | 19.3 | 0.00 | 0.00 | 0.00 | 45 | 1019.4 |
| 20260906053504 | -17 | 202 | 4.8 | 20.9 | 0.00 | 0.00 | 0.00 | 1020.0 | |
| 20260906053121 | 24 | 232 | 9.7 | 17.7 | 0.00 | 0.00 | 0.00 | 44 | 1019.4 |
| 20260906053003 | -17 | 225 | 4.8 | 17.7 | 0.00 | 0.00 | 0.00 | 1019.9 | |
| 20260906052636 | 24 | 291 | 0.0 | 0.0 | 0.00 | 0.00 | 0.00 | 43 | 1019.2 |
| 20260906052504 | -17 | 291 | 0.0 | 0.0 | 0.00 | 0.00 | 0.00 | 1019.4 | |
| 20260906052148 | 25 | 292 | 0.0 | 0.0 | 0.00 | 0.00 | 0.00 | 41 | 1019.2 |
| 20260906052003 | -17 | 292 | 0.0 | 0.0 | 0.00 | 0.00 | 0.00 | 1019.8 | |
| 20260906051639 | 25 | 227 | 0.0 | 0.0 | 0.00 | 0.00 | 0.00 | 40 | 1019.5 |
| 20260906051503 | -17 | 227 | 0.0 | 0.0 | 0.00 | 0.00 | 0.00 | 1020.1 | |
| 20260906051131 | 25 | 227 | 0.0 | 0.0 | 0.00 | 0.00 | 0.00 | 40 | 1019.7 |
| 20260906051003 | -17 | 227 | 0.0 | 0.0 | 0.00 | 0.00 | 0.00 | 1020.3 | |
| 20260906050701 | 25 | 225 | 0.0 | 8.0 | 0.00 | 0.00 | 0.00 | 39 | 1019.8 |
| 20260906050504 | -17 | 225 | 0.0 | 11.3 | 0.00 | 0.00 | 0.00 | 1020.2 | |
| 20260906050130 | 25 | 225 | 3.2 | 14.5 | 0.00 | 0.00 | 0.00 | 39 | 1019.8 |
| 20260906050004 | -17 | 225 | 3.2 | 19.3 | 0.00 | 0.00 | 0.00 | 1020.3 | |
| 20260906045656 | 25 | 194 | 3.2 | 17.7 | 0.00 | 0.00 | 0.00 | 38 | 1019.9 |
| 20260906045503 | -17 | 209 | 4.8 | 19.3 | 0.00 | 0.00 | 0.00 | 1020.3 | |
| 20260906045126 | 24 | 175 | 11.3 | 17.7 | 0.00 | 0.00 | 0.00 | 39 | 1019.8 |
| 20260906045012 | -17 | 202 | 11.3 | 19.3 | 0.00 | 0.00 | 0.00 | 1020.2 | |
| 20260906044640 | 23 | 213 | 4.8 | 16.1 | 0.00 | 0.00 | 0.00 | 40 | 1019.9 |
| 20260906044507 | -17 | 240 | 0.0 | 11.3 | 0.00 | 0.00 | 0.00 | 1020.1 | |
| 20260906044132 | 22 | 183 | 4.8 | 16.1 | 0.00 | 0.00 | 0.00 | 41 | 1019.9 |
| 20260906044015 | -17 | 188 | 3.2 | 17.7 | 0.00 | 0.00 | 0.00 | 1020.2 | |
| 20260906043625 | 22 | 176 | 6.4 | 16.1 | 0.00 | 0.00 | 0.00 | 44 | 1019.9 |
| 20260906043514 | -17 | 180 | 3.2 | 17.7 | 0.00 | 0.00 | 0.00 | 1020.1 | |
| 20260906043156 | 22 | 159 | 0.0 | 0.0 | 0.00 | 0.00 | 0.00 | 46 | 1019.7 |
| 20260906043006 | -17 | 159 | 0.0 | 0.0 | 0.00 | 0.00 | 0.00 | 1020.0 | |
| 20260906042625 | 22 | 269 | 0.0 | 0.0 | 0.00 | 0.00 | 0.00 | 47 | 1019.5 |
| 20260906042512 | -17 | 270 | 0.0 | 0.0 | 0.00 | 0.00 | 0.00 | 1019.8 | |
| 20260906042140 | 22 | 270 | 0.0 | 0.0 | 0.00 | 0.00 | 0.00 | 46 | 1019.2 |
| 20260906042008 | -17 | 271 | 0.0 | 0.0 | 0.00 | 0.00 | 0.00 | 1019.5 | |
| 20260906041653 | 22 | 271 | 0.0 | 0.0 | 0.00 | 0.00 | 0.00 | 45 | 1018.9 |
| 20260906041526 | -17 | 271 | 0.0 | 0.0 | 0.00 | 0.00 | 0.00 | 1019.2 | |
| 20260906041121 | 22 | 271 | 0.0 | 0.0 | 0.00 | 0.00 | 0.00 | 45 | 1018.8 |
| 20260906041014 | -17 | 271 | 0.0 | 0.0 | 0.00 | 0.00 | 0.00 | 1019.1 | |
| 20260906040637 | 22 | 271 | 0.0 | 0.0 | 0.00 | 0.00 | 0.00 | 46 | 1018.7 |
| 20260906040508 | -17 | 271 | 0.0 | 0.0 | 0.00 | 0.00 | 0.00 | 1019.1 | |
| 20260906040128 | 22 | 271 | 0.0 | 0.0 | 0.00 | 0.00 | 0.00 | 45 | 1018.7 |
| 20260906040032 | -17 | 271 | 0.0 | 0.0 | 0.00 | 0.00 | 0.00 | 1019.0 | |
| 20260906035659 | 22 | 272 | 0.0 | 0.0 | 0.00 | 0.00 | 0.00 | 44 | 1018.7 |
| 20260906035511 | -17 | 272 | 0.0 | 0.0 | 0.00 | 0.00 | 0.00 | 1019.1 | |
| 20260906035129 | 22 | 273 | 0.0 | 0.0 | 0.00 | 0.00 | 0.00 | 44 | 1018.7 |
| 20260906035006 | -17 | 273 | 0.0 | 0.0 | 0.00 | 0.00 | 0.00 | 1019.0 | |
| 20260906034642 | 22 | 273 | 0.0 | 0.0 | 0.00 | 0.00 | 0.00 | 43 | 1018.5 |
| 20260906034523 | -17 | 273 | 0.0 | 0.0 | 0.00 | 0.00 | 0.00 | 1018.9 | |
| 20260906034135 | 22 | 273 | 0.0 | 0.0 | 0.00 | 0.00 | 0.00 | 43 | 1018.5 |
| 20260906034007 | -17 | 273 | 0.0 | 0.0 | 0.00 | 0.00 | 0.00 | 1018.9 | |
| 20260906033636 | 22 | 273 | 0.0 | 0.0 | 0.00 | 0.00 | 0.00 | 43 | 1018.4 |
| 20260906033516 | -17 | 273 | 0.0 | 0.0 | 0.00 | 0.00 | 0.00 | 1018.8 | |
| 20260906033127 | 23 | 266 | 0.0 | 0.0 | 0.00 | 0.00 | 0.00 | 43 | 1018.3 |
| 20260906033020 | -17 | 266 | 0.0 | 0.0 | 0.00 | 0.00 | 0.00 | 1018.7 | |
| 20260906032638 | 23 | 266 | 0.0 | 0.0 | 0.00 | 0.00 | 0.00 | 42 | 1018.3 |
| 20260906032503 | -17 | 266 | 0.0 | 0.0 | 0.00 | 0.00 | 0.00 | 1018.7 | |
| 20260906032131 | 23 | 266 | 0.0 | 0.0 | 0.00 | 0.00 | 0.00 | 42 | 1018.3 |
| 20260906032016 | -17 | 266 | 0.0 | 0.0 | 0.00 | 0.00 | 0.00 | 1018.7 | |
| 20260906031625 | 23 | 266 | 0.0 | 0.0 | 0.00 | 0.00 | 0.00 | 41 | 1018.3 |
| 20260906031525 | -17 | 266 | 0.0 | 0.0 | 0.00 | 0.00 | 0.00 | 1018.8 | |
| 20260906031132 | 23 | 267 | 0.0 | 0.0 | 0.00 | 0.00 | 0.00 | 42 | 1018.3 |
| 20260906031019 | -17 | 267 | 0.0 | 0.0 | 0.00 | 0.00 | 0.00 | 1018.7 | |
| 20260906030642 | 23 | 309 | 0.0 | 0.0 | 0.00 | 0.00 | 0.00 | 42 | 1018.2 |
| 20260906030514 | -17 | 309 | 0.0 | 0.0 | 0.00 | 0.00 | 0.00 | 1018.6 | |
| 20260906030134 | 23 | 312 | 0.0 | 0.0 | 0.00 | 0.00 | 0.00 | 41 | 1018.0 |
| 20260906030013 | -17 | 312 | 0.0 | 0.0 | 0.00 | 0.00 | 0.00 | 1018.4 | |
| 20260906025625 | 24 | 323 | 0.0 | 0.0 | 0.00 | 0.00 | 0.00 | 40 | 1017.8 |
| 20260906025516 | -17 | 323 | 0.0 | 0.0 | 0.00 | 0.00 | 0.00 | 1018.2 | |
| 20260906025140 | 24 | 323 | 0.0 | 0.0 | 0.00 | 0.00 | 0.00 | 38 | 1017.6 |
| 20260906025013 | -17 | 323 | 0.0 | 0.0 | 0.00 | 0.00 | 0.00 | 1018.2 | |
| 20260906024630 | 25 | 323 | 0.0 | 0.0 | 0.00 | 0.00 | 0.00 | 38 | 1017.5 |
| 20260906024507 | -17 | 323 | 0.0 | 0.0 | 0.00 | 0.00 | 0.00 | 1018.1 | |
| 20260906024123 | 25 | 323 | 0.0 | 0.0 | 0.00 | 0.00 | 0.00 | 37 | 1017.4 |
| 20260906024019 | -17 | 323 | 0.0 | 0.0 | 0.00 | 0.00 | 0.00 | 1018.0 | |
| 20260906023633 | 25 | 323 | 0.0 | 0.0 | 0.00 | 0.00 | 0.00 | 36 | 1017.3 |
| 20260906023511 | -17 | 323 | 0.0 | 0.0 | 0.00 | 0.00 | 0.00 | 1017.8 | |
| 20260906023124 | 26 | 323 | 0.0 | 0.0 | 0.00 | 0.00 | 0.00 | 34 | 1017.3 |
| 20260906023032 | -17 | 323 | 0.0 | 0.0 | 0.00 | 0.00 | 0.00 | 1017.8 | |
| 20260906022654 | 26 | 323 | 0.0 | 0.0 | 0.00 | 0.00 | 0.00 | 34 | 1017.3 |
| 20260906022512 | -17 | 323 | 0.0 | 0.0 | 0.00 | 0.00 | 0.00 | 1017.8 | |
| 20260906022124 | 26 | 323 | 0.0 | 0.0 | 0.00 | 0.00 | 0.00 | 33 | 1017.3 |
| 20260906022011 | -17 | 323 | 0.0 | 0.0 | 0.00 | 0.00 | 0.00 | 1017.8 | |
| 20260906021634 | 26 | 323 | 0.0 | 0.0 | 0.00 | 0.00 | 0.00 | 32 | 1017.3 |
| 20260906021531 | -17 | 323 | 0.0 | 0.0 | 0.00 | 0.00 | 0.00 | 1017.8 | |
| 20260906021124 | 27 | 323 | 0.0 | 0.0 | 0.00 | 0.00 | 0.00 | 32 | 1017.3 |
| 20260906021014 | -17 | 323 | 0.0 | 0.0 | 0.00 | 0.00 | 0.00 | 1017.8 | |
| 20260906020637 | 27 | 323 | 0.0 | 0.0 | 0.00 | 0.00 | 0.00 | 32 | 1017.3 |
| 20260906020508 | -17 | 323 | 0.0 | 0.0 | 0.00 | 0.00 | 0.00 | 1017.7 | |
| 20260906020149 | 27 | 323 | 0.0 | 0.0 | 0.00 | 0.00 | 0.00 | 31 | 1017.2 |
| 20260906020032 | -17 | 323 | 0.0 | 0.0 | 0.00 | 0.00 | 0.00 | 1017.7 | |
| 20260906015700 | 27 | 323 | 0.0 | 0.0 | 0.00 | 0.00 | 0.00 | 31 | 1017.2 |
| 20260906015513 | -17 | 323 | 0.0 | 0.0 | 0.00 | 0.00 | 0.00 | 1017.6 | |
| 20260906015129 | 27 | 323 | 0.0 | 0.0 | 0.00 | 0.00 | 0.00 | 30 | 1017.1 |
| 20260906015017 | -17 | 323 | 0.0 | 0.0 | 0.00 | 0.00 | 0.00 | 1017.6 | |
| 20260906014700 | 27 | 323 | 0.0 | 0.0 | 0.00 | 0.00 | 0.00 | 29 | 1017.1 |
| 20260906014527 | -17 | 323 | 0.0 | 0.0 | 0.00 | 0.00 | 0.00 | 1017.6 | |
| 20260906014130 | 27 | 323 | 0.0 | 0.0 | 0.00 | 0.00 | 0.00 | 28 | 1017.0 |
| 20260906014012 | -17 | 323 | 0.0 | 0.0 | 0.00 | 0.00 | 0.00 | 1017.4 | |
| 20260906013624 | 28 | 323 | 0.0 | 0.0 | 0.00 | 0.00 | 0.00 | 28 | 1016.9 |
| 20260906013514 | -17 | 323 | 0.0 | 0.0 | 0.00 | 0.00 | 0.00 | 1017.3 | |
| 20260906013136 | 28 | 330 | 0.0 | 0.0 | 0.00 | 0.00 | 0.00 | 28 | 1016.8 |
| 20260906013021 | -17 | 330 | 0.0 | 0.0 | 0.00 | 0.00 | 0.00 | 1017.3 | |
| 20260906012630 | 28 | 336 | 0.0 | 4.8 | 0.00 | 0.00 | 0.00 | 28 | 1016.9 |
| 20260906012507 | -17 | 336 | 0.0 | 4.8 | 0.00 | 0.00 | 0.00 | 1017.4 | |
| 20260906012123 | 28 | 336 | 0.0 | 4.8 | 0.00 | 0.00 | 0.00 | 27 | 1016.9 |
| 20260906012016 | -17 | 337 | 0.0 | 4.8 | 0.00 | 0.00 | 0.00 | 1017.4 | |
| 20260906011637 | 28 | 322 | 1.6 | 6.4 | 0.00 | 0.00 | 0.00 | 27 | 1017.0 |
| 20260906011520 | -17 | 348 | 0.0 | 8.0 | 0.00 | 0.00 | 0.00 | 1017.4 | |
| 20260906011125 | 28 | 338 | 0.0 | 8.0 | 0.00 | 0.00 | 0.00 | 26 | 1016.9 |
| 20260906011020 | -17 | 338 | 0.0 | 11.3 | 0.00 | 0.00 | 0.00 | 1017.4 | |
| 20260906010656 | 28 | 325 | 1.6 | 16.1 | 0.00 | 0.00 | 0.00 | 26 | 1016.9 |
| 20260906010516 | -17 | 321 | 0.0 | 16.1 | 0.00 | 0.00 | 0.00 | 1017.4 | |
| 20260906010124 | 28 | 348 | 3.2 | 16.1 | 0.00 | 0.00 | 0.00 | 26 | 1016.9 |
| 20260906010013 | -17 | 332 | 1.6 | 16.1 | 0.00 | 0.00 | 0.00 | 1017.3 | |
| 20260906005638 | 29 | 305 | 6.4 | 16.1 | 0.00 | 0.00 | 0.00 | 25 | 1016.8 |
| 20260906005516 | -17 | 354 | 6.4 | 16.1 | 0.00 | 0.00 | 0.00 | 1017.3 | |
| 20260906005130 | 29 | 353 | 3.2 | 11.3 | 0.00 | 0.00 | 0.00 | 26 | 1016.8 |
| 20260906005014 | -17 | 355 | 1.6 | 9.7 | 0.00 | 0.00 | 0.00 | 1017.3 | |
| 20260906004643 | 29 | 350 | 0.0 | 0.0 | 0.00 | 0.00 | 0.00 | 26 | 1016.8 |
| 20260906004512 | -17 | 350 | 0.0 | 0.0 | 0.00 | 0.00 | 0.00 | 1017.3 | |
| 20260906004135 | 29 | 350 | 0.0 | 0.0 | 0.00 | 0.00 | 0.00 | 26 | 1016.7 |
| 20260906004014 | -17 | 349 | 0.0 | 0.0 | 0.00 | 0.00 | 0.00 | 1017.3 | |
| 20260906003646 | 30 | 352 | 0.0 | 0.0 | 0.00 | 0.00 | 0.00 | 26 | 1016.7 |
| 20260906003512 | -17 | 352 | 0.0 | 0.0 | 0.00 | 0.00 | 0.00 | 1017.3 | |
| 20260906003158 | 30 | 354 | 0.0 | 0.0 | 0.00 | 0.00 | 0.00 | 27 | 1016.8 |
| 20260906003032 | -17 | 354 | 0.0 | 0.0 | 0.00 | 0.00 | 0.00 | 1017.4 | |
| 20260906002628 | 30 | 358 | 0.0 | 0.0 | 0.00 | 0.00 | 0.00 | 28 | 1016.9 |
| 20260906002515 | -17 | 26 | 0.0 | 0.0 | 0.00 | 0.00 | 0.00 | 1017.3 | |
| 20260906002155 | 31 | 91 | 0.0 | 0.0 | 0.00 | 0.00 | 0.00 | 31 | 1016.8 |
| 20260906002013 | -17 | 91 | 0.0 | 0.0 | 0.00 | 0.00 | 0.00 | 1017.3 | |
| 20260906001646 | 31 | 91 | 0.0 | 0.0 | 0.00 | 0.00 | 0.00 | 31 | 1016.8 |
| 20260906001533 | -17 | 91 | 0.0 | 0.0 | 0.00 | 0.00 | 0.00 | 1017.3 | |
| 20260906001139 | 31 | 91 | 0.0 | 0.0 | 0.00 | 0.00 | 0.00 | 27 | 1016.7 |
| 20260906001013 | -17 | 91 | 0.0 | 0.0 | 0.00 | 0.00 | 0.00 | 1017.3 | |
| 20260906000630 | 32 | 91 | 0.0 | 0.0 | 0.00 | 0.00 | 0.00 | 25 | 1016.7 |
| 20260906000507 | -17 | 91 | 0.0 | 0.0 | 0.00 | 0.00 | 0.00 | 1017.2 | |
| 20260906000140 | 32 | 91 | 0.0 | 0.0 | 0.00 | 0.00 | 0.00 | 26 | 1016.7 |
| 20260906000030 | -17 | 91 | 0.0 | 0.0 | 0.00 | 0.00 | 0.00 | 1017.2 | |
| 20260905235653 | 32 | 91 | 0.0 | 0.0 | 0.00 | 0.00 | 0.00 | 25 | 1016.6 |
| 20260905235513 | -17 | 91 | 0.0 | 0.0 | 0.00 | 0.00 | 0.00 | 1017.2 | |
| 20260905235124 | 33 | 91 | 0.0 | 0.0 | 0.00 | 0.00 | 0.00 | 24 | 1016.6 |
| 20260905235018 | -17 | 91 | 0.0 | 0.0 | 0.00 | 0.00 | 0.00 | 1017.1 | |
| 20260905234656 | 33 | 91 | 0.0 | 0.0 | 0.00 | 0.00 | 0.00 | 21 | 1016.6 |
| 20260905234527 | -17 | 91 | 0.0 | 0.0 | 0.00 | 0.00 | 0.00 | 1017.2 | |
| 20260905234146 | 33 | 91 | 0.0 | 0.0 | 0.00 | 0.00 | 0.00 | 21 | 1016.7 |
| 20260905234017 | -17 | 91 | 0.0 | 0.0 | 0.00 | 0.00 | 0.00 | 1017.2 | |
| 20260905233639 | 33 | 91 | 0.0 | 0.0 | 0.00 | 0.00 | 0.00 | 20 | 1016.7 |
| 20260905233515 | -17 | 91 | 0.0 | 0.0 | 0.00 | 0.00 | 0.00 | 1017.2 | |
| 20260905233129 | 33 | 91 | 0.0 | 0.0 | 0.00 | 0.00 | 0.00 | 21 | 1016.6 |
| 20260905233031 | -17 | 91 | 0.0 | 0.0 | 0.00 | 0.00 | 0.00 | 1017.2 | |
| 20260905232642 | 33 | 91 | 0.0 | 0.0 | 0.00 | 0.00 | 0.00 | 20 | 1016.7 |
| 20260905232512 | -17 | 91 | 0.0 | 0.0 | 0.00 | 0.00 | 0.00 | 1017.2 | |
| 20260905232133 | 33 | 61 | 0.0 | 0.0 | 0.00 | 0.00 | 0.00 | 20 | 1016.6 |
| 20260905232016 | -17 | 61 | 0.0 | 0.0 | 0.00 | 0.00 | 0.00 | 1017.2 | |
| 20260905231635 | 33 | 59 | 0.0 | 0.0 | 0.00 | 0.00 | 0.00 | 22 | 1016.6 |
| 20260905231520 | -17 | 86 | 0.0 | 0.0 | 0.00 | 0.00 | 0.00 | 1017.1 | |
| 20260905231126 | 33 | 57 | 0.0 | 0.0 | 0.00 | 0.00 | 0.00 | 21 | 1016.6 |
| 20260905231018 | -17 | 57 | 0.0 | 0.0 | 0.00 | 0.00 | 0.00 | 1017.1 | |
| 20260905230636 | 33 | 99 | 0.0 | 0.0 | 0.00 | 0.00 | 0.00 | 20 | 1016.6 |
| 20260905230517 | -17 | 99 | 0.0 | 0.0 | 0.00 | 0.00 | 0.00 | 1017.1 | |
| 20260905230127 | 33 | 99 | 0.0 | 0.0 | 0.00 | 0.00 | 0.00 | 20 | 1016.6 |
| 20260905230016 | -17 | 99 | 0.0 | 0.0 | 0.00 | 0.00 | 0.00 | 1017.1 | |
| 20260905225631 | 33 | 99 | 0.0 | 0.0 | 0.00 | 0.00 | 0.00 | 20 | 1016.6 |
| 20260905225518 | -17 | 98 | 0.0 | 0.0 | 0.00 | 0.00 | 0.00 | 1017.1 | |
| 20260905225141 | 33 | 100 | 0.0 | 0.0 | 0.00 | 0.00 | 0.00 | 21 | 1016.5 |
| 20260905225013 | -17 | 94 | 0.0 | 0.0 | 0.00 | 0.00 | 0.00 | 1017.1 | |
| 20260905224635 | 33 | 105 | 0.0 | 0.0 | 0.00 | 0.00 | 0.00 | 20 | 1016.6 |
| 20260905224512 | -17 | 101 | 0.0 | 0.0 | 0.00 | 0.00 | 0.00 | 1017.0 |